Hermosillo, Mexico

12:14 AM MST on February 12, 2016 (GMT -0700)
Gen Ignacio Pesqueira Garcia | | Change Station
CLOSE
Current Station
Airport
Location: Hermosillo,
Elevation: 627 ft
Nearby Weather Stations

Elev 627 ft 29.09 °N, 111.05 °W | Updated 34 minutes ago

Scattered Clouds
Scattered Clouds
64 °F
Feels Like 64 °F
N
0
Wind Variable Wind from North

Today
High -- | Low -- °F
--% Chance of Precip.
Yesterday
High -- | Low -- °F
Precip. -- in
Pressure 30.07 in
Visibility 10.0 miles
Clouds Scattered Clouds 20000 ft
Dew Point 37 °F
Humidity 37%
Rainfall 0.00 in
Snow Depth Not available.
7:05 AM 6:11 PM
Waxing Crescent, 18% visible
METAR MMHO 120640Z 00000KT 10SM SCT200 18/03 A3007 RMK 8/008 HZY
Pressure 30.07 in
Visibility 10.0 miles
Clouds Scattered Clouds 20000 ft
Dew Point 37 °F
Humidity 37%
Rainfall 0.00 in
Snow Depth Not available.
7:05 AM 6:11 PM
Waxing Crescent, 18% visible
METAR MMHO 120640Z 00000KT 10SM SCT200 18/03 A3007 RMK 8/008 HZY

10-Day Weather Forecast

No radar image for this location.
×

Almanac

Astronomy

Feb. 12, 2016 Rise Set
Actual Time
Civil Twilight
Nautical Twilight
Astronomical Twilight
Moon
Length of Visible Light
Length of Day
Tomorrow will be .
, % of the Moon is Illuminated

Today's Extremes

Country Highs Country Lows

Community

WunderPhotos

Upload Photos

1,892,278 photos uploaded!

WunderBlog® & News

Nearby

Air Quality

  Air Quality AQ Index Pollutant
Not available.

Snow Depth

Station Depth Elevation

Earthquake Activity

City Distance Mag. Time & Date
Minimum magnitude displayed is 2.5.

Coastal Water Temperatures

Place Temperature

Stations

Nearby Weather Stations

Station Location Temp. Windchill Dew Point Humidity Wind Precip. Elev Updated Type